Location: El Atico
(3.0014°N, 75.4378°W)
Time: 12:40:27
(UTC+00:00)

Cosmos 1937 Rocket - Pass Details

Date: 09 December 2025
Orbit: 742 x 775 km, 74.0° (Epoch: 25 January)

Event Time Altitude Azimuth Distance (km) Brightness Sun altitude
Rises 23:06:16 0° 192° (SSW) 3,239 7.3 -3.9°
Reaches altitude 10° 23:08:39 10° 192° (SSW) 2,307 6.5 -4.4°
Maximum altitude 23:13:54 90° 96° (E) 767 3.6 -5.7°
Drops below altitude 10° 23:19:05 10° 12° (NNE) 2,279 5.6 -6.8°
Sets 23:21:25 0° 13° (NNE) 3,197 6.4 -7.4°
